UPS2447 KMCO-KMIA

Flight info

Callsign UPS2447
Flight time 0h 39m
Altitude 23000
Route DDANY3 DDANY CSTAL3
Aircraft B763/H-SDE3FGHIM3RWXY/LB1

Departure

Time 2026-04-21 00:03
Airport Orlando International Airport (KMCO)

Arrival

Time 2026-04-21 00:42
Airport Miami International Airport (KMIA)
Time Latitude Longitude Altitude Speed Heading
2026-04-20 23:54 28.42360 -81.32988 97 ft 0 kts
2026-04-20 23:57 28.42367 -81.32988 97 ft 7 kts
2026-04-20 23:57 28.42517 -81.32980 97 ft 32 kts 10°
2026-04-20 23:58 28.42651 -81.32803 97 ft 23 kts 89°
2026-04-20 23:58 28.42652 -81.32717 97 ft 9 kts 95°
2026-04-20 23:58 28.42630 -81.32633 97 ft 12 kts 118°
2026-04-20 23:58 28.42583 -81.32532 97 ft 17 kts 120°
2026-04-20 23:59 28.42514 -81.32399 97 ft 22 kts 120°
2026-04-20 23:59 28.42424 -81.32230 95 ft 27 kts 125°
2026-04-20 23:59 28.42314 -81.32029 94 ft 32 kts 125°
2026-04-20 23:59 28.42274 -81.31776 90 ft 35 kts 86°
2026-04-21 00:00 28.42272 -81.31485 90 ft 39 kts 89°
2026-04-21 00:00 28.42256 -81.31174 87 ft 43 kts 98°
2026-04-21 00:00 28.42248 -81.30822 87 ft 46 kts 86°
2026-04-21 00:00 28.42276 -81.30452 90 ft 44 kts 94°
2026-04-21 00:01 28.42287 -81.30114 93 ft 45 kts 85°
2026-04-21 00:01 28.42281 -81.29752 92 ft 32 kts 107°
2026-04-21 00:01 28.42082 -81.29697 93 ft 33 kts 180°
2026-04-21 00:01 28.41830 -81.29695 93 ft 38 kts 177°
2026-04-21 00:02 28.41542 -81.29688 90 ft 43 kts 179°
2026-04-21 00:02 28.41223 -81.29688 88 ft 47 kts 189°
2026-04-21 00:02 28.40892 -81.29684 85 ft 41 kts 179°
2026-04-21 00:02 28.40837 -81.29562 85 ft 11 kts 43°
2026-04-21 00:03 28.40915 -81.29561 85 ft 16 kts 359°
2026-04-21 00:03 28.41199 -81.29565 88 ft 88 kts
2026-04-21 00:03 28.42179 -81.29562 241 ft 185 kts
2026-04-21 00:03 28.43681 -81.29571 996 ft 245 kts
2026-04-21 00:04 28.45240 -81.29352 2675 ft 222 kts 22°
2026-04-21 00:04 28.46537 -81.28343 3242 ft 240 kts 52°
2026-04-21 00:04 28.47422 -81.26735 3815 ft 246 kts 57°
2026-04-21 00:04 28.48360 -81.25101 4350 ft 250 kts 54°
2026-04-21 00:05 28.49359 -81.23467 4889 ft 254 kts 53°
2026-04-21 00:05 28.50252 -81.21709 5425 ft 260 kts 70°
2026-04-21 00:05 28.50644 -81.19679 5996 ft 276 kts 76°
2026-04-21 00:05 28.51010 -81.17451 6637 ft 302 kts 82°
2026-04-21 00:06 28.50865 -81.15007 7273 ft 324 kts 101°
2026-04-21 00:06 28.50241 -81.12464 7918 ft 343 kts 102°
2026-04-21 00:06 28.49637 -81.09837 8526 ft 347 kts 102°
2026-04-21 00:06 28.48980 -81.07188 9128 ft 352 kts 107°
2026-04-21 00:07 28.47839 -81.04717 9757 ft 362 kts 125°
2026-04-21 00:07 28.46066 -81.02666 10485 ft 366 kts 140°
2026-04-21 00:07 28.44035 -81.00848 11233 ft 376 kts 140°
2026-04-21 00:07 28.42001 -80.98981 11964 ft 378 kts 141°
2026-04-21 00:08 28.39924 -80.97088 12701 ft 385 kts 141°
2026-04-21 00:08 28.37828 -80.95179 13462 ft 388 kts 141°
2026-04-21 00:08 28.35723 -80.93262 14153 ft 397 kts 142°
2026-04-21 00:08 28.33562 -80.91296 14906 ft 401 kts 142°
2026-04-21 00:09 28.31343 -80.89280 15655 ft 410 kts 143°
2026-04-21 00:09 28.29178 -80.87154 16366 ft 415 kts 134°
2026-04-21 00:09 28.27449 -80.84502 17099 ft 424 kts 119°
2026-04-21 00:09 28.26252 -80.81445 17848 ft 432 kts 111°
2026-04-21 00:10 28.25106 -80.78261 18601 ft 440 kts 112°
2026-04-21 00:10 28.23866 -80.75083 19334 ft 441 kts 119°
2026-04-21 00:10 28.22114 -80.72225 20086 ft 447 kts 133°
2026-04-21 00:10 28.19946 -80.69707 20836 ft 449 kts 141°
2026-04-21 00:11 28.17469 -80.67580 21582 ft 448 kts 153°
2026-04-21 00:11 28.14666 -80.65949 22340 ft 448 kts 163°
2026-04-21 00:11 28.11747 -80.64797 23065 ft 449 kts 168°
2026-04-21 00:11 28.08703 -80.63731 23197 ft 458 kts 169°
2026-04-21 00:12 28.05669 -80.62739 23191 ft 453 kts 170°
2026-04-21 00:12 28.02661 -80.61784 23186 ft 446 kts 171°
2026-04-21 00:12 27.99619 -80.60844 23193 ft 449 kts 171°
2026-04-21 00:12 27.96549 -80.59917 23212 ft 470 kts 171°
2026-04-21 00:13 27.93301 -80.58942 23204 ft 490 kts 171°
2026-04-21 00:13 27.89979 -80.57945 23196 ft 501 kts 170°
2026-04-21 00:13 27.86553 -80.56914 23187 ft 500 kts 170°
2026-04-21 00:13 27.83198 -80.55908 23181 ft 498 kts 171°
2026-04-21 00:14 27.79854 -80.54907 23184 ft 497 kts 171°
2026-04-21 00:14 27.76506 -80.53909 23190 ft 500 kts 170°
2026-04-21 00:14 27.73127 -80.52900 23184 ft 498 kts 170°
2026-04-21 00:14 27.69789 -80.51905 23186 ft 496 kts 170°
2026-04-21 00:15 27.66427 -80.50903 23181 ft 498 kts 170°
2026-04-21 00:15 27.63134 -80.49730 23184 ft 503 kts 165°
2026-04-21 00:15 27.59819 -80.48366 23180 ft 501 kts 165°
2026-04-21 00:15 27.56520 -80.47054 23182 ft 503 kts 165°
2026-04-21 00:16 27.53236 -80.45746 23178 ft 501 kts 165°
2026-04-21 00:16 27.49956 -80.44441 23178 ft 500 kts 165°
2026-04-21 00:16 27.46650 -80.43131 23178 ft 500 kts 165°
2026-04-21 00:16 27.43377 -80.41836 23175 ft 499 kts 165°
2026-04-21 00:17 27.40122 -80.40548 23175 ft 500 kts 165°
2026-04-21 00:17 27.36796 -80.39233 23177 ft 501 kts 165°
2026-04-21 00:17 27.33535 -80.37946 23172 ft 498 kts 165°
2026-04-21 00:17 27.30262 -80.36654 23171 ft 498 kts 165°
2026-04-21 00:18 27.26964 -80.35354 23169 ft 499 kts 165°
2026-04-21 00:18 27.23705 -80.34070 23155 ft 496 kts 166°
2026-04-21 00:18 27.20441 -80.32787 23154 ft 497 kts 166°
2026-04-21 00:18 27.17179 -80.31521 23154 ft 495 kts 166°
2026-04-21 00:19 27.13976 -80.30268 22813 ft 480 kts 166°
2026-04-21 00:19 27.10836 -80.29050 22185 ft 471 kts 166°
2026-04-21 00:19 27.07772 -80.27860 21569 ft 463 kts 166°
2026-04-21 00:19 27.04738 -80.26684 20952 ft 455 kts 165°
2026-04-21 00:20 27.01805 -80.25546 20347 ft 448 kts 165°
2026-04-21 00:20 26.98861 -80.24406 19728 ft 442 kts 165°
2026-04-21 00:20 26.95972 -80.23287 19111 ft 436 kts 165°
2026-04-21 00:20 26.93120 -80.22182 18503 ft 430 kts 165°
2026-04-21 00:21 26.90324 -80.21101 17901 ft 425 kts 165°
2026-04-21 00:21 26.87540 -80.20025 17291 ft 420 kts 164°
2026-04-21 00:21 26.84793 -80.18982 16679 ft 415 kts 165°
2026-04-21 00:21 26.82057 -80.17970 16074 ft 410 kts 164°
2026-04-21 00:22 26.79375 -80.16975 15463 ft 406 kts 164°
2026-04-21 00:22 26.76700 -80.15984 14856 ft 401 kts 164°
2026-04-21 00:22 26.74066 -80.15008 14251 ft 397 kts 163°
2026-04-21 00:22 26.71445 -80.14039 13646 ft 393 kts 163°
2026-04-21 00:23 26.68819 -80.13258 13084 ft 386 kts 169°
2026-04-21 00:23 26.66230 -80.12577 12509 ft 381 kts 167°
2026-04-21 00:23 26.63661 -80.11889 11905 ft 378 kts 168°
2026-04-21 00:23 26.61127 -80.11204 11308 ft 375 kts 167°
2026-04-21 00:24 26.58608 -80.10546 10707 ft 372 kts 168°
2026-04-21 00:24 26.56109 -80.09927 10111 ft 368 kts 168°
2026-04-21 00:24 26.53611 -80.09303 9504 ft 365 kts 168°
2026-04-21 00:24 26.51150 -80.08690 8902 ft 362 kts 167°
2026-04-21 00:25 26.48720 -80.08084 8303 ft 359 kts 167°
2026-04-21 00:25 26.46278 -80.07475 8005 ft 347 kts 167°
2026-04-21 00:25 26.43932 -80.06968 7933 ft 348 kts 169°
2026-04-21 00:25 26.41503 -80.06451 7343 ft 358 kts 168°
2026-04-21 00:26 26.39075 -80.05925 7094 ft 343 kts 166°
2026-04-21 00:26 26.36785 -80.05283 7111 ft 340 kts 165°
2026-04-21 00:26 26.34474 -80.04655 7116 ft 347 kts 165°
2026-04-21 00:26 26.32111 -80.04003 7107 ft 345 kts 165°
2026-04-21 00:27 26.29769 -80.03361 7109 ft 345 kts 165°
2026-04-21 00:27 26.27426 -80.02722 7106 ft 345 kts 166°
2026-04-21 00:27 26.25057 -80.02417 7109 ft 346 kts 181°
2026-04-21 00:27 26.22668 -80.02824 7116 ft 347 kts 192°
2026-04-21 00:28 26.20299 -80.03361 7107 ft 349 kts 191°
2026-04-21 00:28 26.17917 -80.03899 7102 ft 348 kts 191°
2026-04-21 00:28 26.15532 -80.04436 7105 ft 348 kts 191°
2026-04-21 00:28 26.13150 -80.04979 7106 ft 347 kts 191°
2026-04-21 00:29 26.10775 -80.05518 7103 ft 348 kts 191°
2026-04-21 00:29 26.08429 -80.06054 7097 ft 347 kts 191°
2026-04-21 00:29 26.06049 -80.06615 7096 ft 347 kts 193°
2026-04-21 00:29 26.03710 -80.07233 7094 ft 348 kts 193°
2026-04-21 00:30 26.01353 -80.07842 7069 ft 348 kts 193°
2026-04-21 00:30 25.98964 -80.08465 6498 ft 355 kts 192°
2026-04-21 00:30 25.96550 -80.09094 5887 ft 352 kts 192°
2026-04-21 00:30 25.94199 -80.09744 5281 ft 349 kts 197°
2026-04-21 00:31 25.92046 -80.10938 4989 ft 338 kts 217°
2026-04-21 00:31 25.90404 -80.12656 5005 ft 337 kts 228°
2026-04-21 00:31 25.88783 -80.14580 4994 ft 339 kts 227°
2026-04-21 00:31 25.87380 -80.16537 4970 ft 320 kts 242°
2026-04-21 00:32 25.86613 -80.18749 4993 ft 314 kts 261°
2026-04-21 00:32 25.86452 -80.21155 4684 ft 323 kts 277°
2026-04-21 00:32 25.86838 -80.23453 4117 ft 321 kts 286°
2026-04-21 00:32 25.87178 -80.25874 3527 ft 325 kts 277°
2026-04-21 00:33 25.87427 -80.28243 3029 ft 318 kts 288°
2026-04-21 00:33 25.88216 -80.30357 2987 ft 293 kts 303°
2026-04-21 00:33 25.89162 -80.32303 2976 ft 277 kts 303°
2026-04-21 00:33 25.90041 -80.34128 2981 ft 268 kts 303°
2026-04-21 00:34 25.90883 -80.35859 2989 ft 266 kts 303°
2026-04-21 00:34 25.91762 -80.37673 2979 ft 253 kts 303°
2026-04-21 00:34 25.92583 -80.39365 2984 ft 247 kts 304°
2026-04-21 00:34 25.93391 -80.41073 2993 ft 251 kts 297°
2026-04-21 00:35 25.93699 -80.42993 3015 ft 260 kts 274°
2026-04-21 00:35 25.93677 -80.45023 2999 ft 261 kts 274°
2026-04-21 00:35 25.93661 -80.46994 2981 ft 252 kts 272°
2026-04-21 00:35 25.93578 -80.48928 2992 ft 249 kts 270°
2026-04-21 00:36 25.93478 -80.50885 2997 ft 251 kts 270°
2026-04-21 00:36 25.93175 -80.52778 2993 ft 252 kts 247°
2026-04-21 00:36 25.92104 -80.54273 3021 ft 246 kts 213°
2026-04-21 00:36 25.90536 -80.54916 3018 ft 239 kts 179°
2026-04-21 00:37 25.88961 -80.54552 3023 ft 229 kts 144°
2026-04-21 00:37 25.87881 -80.53357 3019 ft 215 kts 111°
2026-04-21 00:37 25.87370 -80.51820 3009 ft 211 kts 103°
2026-04-21 00:37 25.87084 -80.50247 3033 ft 202 kts 85°
2026-04-21 00:38 25.87159 -80.48689 3024 ft 206 kts 84°
2026-04-21 00:38 25.87062 -80.47077 2991 ft 208 kts 95°
2026-04-21 00:38 25.86758 -80.45495 2793 ft 211 kts 99°
2026-04-21 00:38 25.86366 -80.44044 2751 ft 174 kts 106°
2026-04-21 00:39 25.85883 -80.42930 2564 ft 156 kts 110°
2026-04-21 00:39 25.85371 -80.41903 2255 ft 146 kts 111°
2026-04-21 00:39 25.84934 -80.40891 1930 ft 146 kts 102°
2026-04-21 00:39 25.84547 -80.39880 1693 ft 146 kts 110°
2026-04-21 00:40 25.84106 -80.38882 1492 ft 146 kts 107°
2026-04-21 00:40 25.83668 -80.37863 1306 ft 148 kts 109°
2026-04-21 00:40 25.83228 -80.36906 1137 ft 149 kts 111°
2026-04-21 00:40 25.82751 -80.35900 961 ft 149 kts 112°
2026-04-21 00:41 25.82296 -80.34967 796 ft 149 kts 112°
2026-04-21 00:41 25.81843 -80.34056 671 ft 147 kts 113°
2026-04-21 00:41 25.81377 -80.33145 600 ft 149 kts 114°
2026-04-21 00:41 25.80875 -80.32227 481 ft 150 kts 116°
2026-04-21 00:42 25.80456 -80.31368 285 ft 152 kts 111°
2026-04-21 00:42 25.79684 -80.29756 24 ft 143 kts 114°
2026-04-21 00:42 25.79347 -80.29090 15 ft 40 kts 118°